Location: Unspecified
(58.7730°N, 5.8460°E)
Time: 00:48:11
(UTC+02:00)

CZ-3 Stage 3 - Visible Passes

Search period start: 26 July 2017 00:00
Search period end: 05 August 2017 00:00
Orbit: 426 x 34772 km, 31.0° (Epoch: 24 July)

Date Brightness Start Highest point End Pass type
(mag) Time Alt. Az. Time Alt. Az. Time Alt. Az.
27 Jul 10.5 20:48:50 10° W 21:39:02 20° WSW 23:37:52 10° WSW visible
28 Jul 8.4 16:57:34 10° WSW 17:40:08 41° SSW 23:06:02 10° SW visible
30 Jul 10.5 20:40:18 10° W 21:28:47 19° WSW 23:20:52 10° WSW visible
31 Jul 8.3 16:48:25 10° WSW 17:30:07 40° SSW 22:49:42 10° SW visible
02 Aug 10.6 20:31:52 10° W 21:18:34 18° WSW 23:03:43 10° WSW visible
03 Aug 8.3 16:39:16 10° WSW 17:20:09 39° SSW 22:33:14 10° SW visible
